Друя

Беларусь     55°47′09″N   27°27′29″E
темп.,
°C
ветер,
м/с
пор.,
м/с
влажн.,
%
обл.,
%
осадки,
мм/ч
давл.,
гПа
погр.,
м
7 мая, пт
пт700:00+3ююз412955 0.0 1005367
03:00+2ююз412926 0.0 1005296
06:00+2ююз411912 0.0 1005278
09:00+7юз587031 0.0 1006697
12:00+10юз5754100 0.1 10061708
15:00+11юз4554100 0.3 10061812
18:00+7ю2287100 1.6 1005521
21:00+6зюз0196100 5.3 100447
8 мая, сб
сб800:00+5с2694100 2.4 1004555
03:00+3зсз2296100 2.4 100422
06:00+2зсз41097100 0.0 1005355
09:00+4сз687999 0.0 1007862
12:00+5зсз6968100 0.0 10091310
15:00+9зсз7947100 0.1 10102399
18:00+9зсз695444 0.1 10111916
21:00+4з49830 0.2 1013262
9 мая, вс
вс900:00+1з39923 0.0 1016196
03:000з35840 0.0 101884
06:000зюз23871 0.0 102061
09:00+7зюз4573100 0.0 1021553
12:00+10юз565239 0.0 10221457
15:00+12юз674450 0.0 10212052
18:00+12ююз475342 0.0 10211328
21:00+7ю387591 0.0 1022153
10 мая, пн
пн1000:00+9ю5136643 0.0 1023427
03:00+7ююз514759 0.0 1024351
06:00+6ю4138039 0.0 1025289
09:00+12ююз596743 0.0 1025432
12:00+16ю695627 0.0 10251053
15:00+18ю79525 0.0 10251322
18:00+17ю610605 0.0 10241162
21:00+13ю4137599 0.0 1024397
11 мая, вт
вт1100:00+10ююв5147951 0.0 1026350
03:00+9ююв515805 0.0 1025376
06:00+8ююв514825 0.0 1026373
09:00+13ю612654 0.0 1026583
12:00+16ю79505 0.0 1026997
15:00+19ююв69445 0.0 10251265
18:00+19ююв59556 0.0 10231175
21:00+13юв513719 0.0 1023348